S55G-5 Weather Reports


time (UTC)temp
C
wind
direction
speed
KPH
gust
KPH
rain 1hr
cm
rain 24hr
cm
rain mn
cm
humidity
%
barometer
mb
20260906082703 28 83 8.0 17.7 0.00 0.00 0.00 47 1034.2
20260906081803 28 93 6.4 24.1 0.00 0.00 0.00 48 1034.0
20260906080903 27 95 8.0 25.7 0.00 0.00 0.00 48 1034.0
20260906080004 27 91 9.7 25.7 0.00 0.00 0.00 48 1033.8
20260906075403 27 101 6.4 22.5 0.00 0.00 0.00 48 1033.9
20260906074503 27 107 6.4 20.9 0.00 0.00 0.00 49 1033.7
20260906073603 27 101 8.0 17.7 0.00 0.00 0.00 50 1033.7
20260906072703 26 83 11.3 22.5 0.00 0.00 0.00 49 1033.8
20260906071803 26 95 12.9 22.5 0.00 0.00 0.00 49 1033.4
20260906070903 26 94 6.4 17.7 0.00 0.00 0.00 50 1033.6
20260906070217 26 109 9.7 17.7 0.00 0.00 0.00 50 1033.5
20260906065403 26 89 9.7 20.9 0.00 0.00 0.00 51 1033.7
20260906064503 26 92 8.0 20.9 0.00 0.00 0.00 51 1033.3
20260906063603 26 89 6.4 20.9 0.00 0.00 0.00 51 1033.4
20260906062703 25 93 8.0 22.5 0.00 0.00 0.00 52 1033.5
20260906061803 25 81 9.7 20.9 0.00 0.00 0.00 52 1033.3
20260906060903 25 78 11.3 20.9 0.00 0.00 0.00 52 1033.2
20260906060003 25 79 6.4 17.7 0.00 0.00 0.00 55 1033.4
20260906055403 25 77 6.4 20.9 0.00 0.00 0.00 54 1033.2
20260906054503 24 83 6.4 20.9 0.00 0.00 0.00 55 1033.0
20260906053603 24 93 6.4 12.9 0.00 0.00 0.00 56 1032.8
20260906052703 24 83 6.4 12.9 0.00 0.00 0.00 57 1032.9
20260906051803 24 84 4.8 12.9 0.00 0.00 0.00 57 1032.9
20260906051117 23 95 4.8 14.5 0.00 0.00 0.00 58 1032.9
20260906050003 23 84 6.4 20.9 0.00 0.00 0.00 58 1032.7
20260906045403 23 86 6.4 14.5 0.00 0.00 0.00 59 1032.7
20260906044503 23 91 8.0 14.5 0.00 0.00 0.00 58 1032.4
20260906043603 23 82 6.4 12.9 0.00 0.00 0.00 59 1032.6
20260906042703 23 85 6.4 14.5 0.00 0.00 0.00 60 1032.6
20260906041803 23 71 6.4 17.7 0.00 0.00 0.00 60 1032.6
20260906040903 23 78 6.4 14.5 0.00 0.00 0.00 60 1032.3
20260906040003 23 103 6.4 12.9 0.00 0.00 0.00 59 1032.3
20260906035403 23 95 6.4 12.9 0.00 0.00 0.00 59 1032.2
20260906034717 23 98 6.4 12.9 0.00 0.00 0.00 60 1032.2
20260906033603 23 93 4.8 17.7 0.00 0.00 0.00 60 1032.1
20260906032703 23 101 8.0 17.7 0.00 0.00 0.00 59 1032.0
20260906031803 24 100 6.4 17.7 0.00 0.00 0.00 59 1032.0
20260906030903 23 96 6.4 17.7 0.00 0.00 0.00 59 1032.0
20260906030003 24 96 6.4 17.7 0.00 0.00 0.00 58 1031.8
20260906025617 24 92 8.0 17.7 0.00 0.00 0.00 58 1032.0
20260906024503 25 103 6.4 17.7 0.00 0.00 0.00 56 1031.8
20260906023603 24 94 6.4 20.9 0.00 0.00 0.00 57 1031.9
20260906022703 25 104 6.4 20.9 0.00 0.00 0.00 56 1031.8
20260906021803 25 90 8.0 17.7 0.00 0.00 0.00 56 1031.7
20260906020903 24 78 3.2 14.5 0.00 0.00 0.00 57 1031.9
20260906020003 24 95 3.2 11.3 0.00 0.00 0.00 58 1031.9
20260906015403 24 94 3.2 9.7 0.00 0.00 0.00 58 1031.9
20260906014718 24 89 4.8 9.7 0.00 0.00 0.00 57 1031.9
20260906013603 23 80 4.8 11.3 0.00 0.00 0.00 59 1031.8
20260906012703 23 80 3.2 12.9 0.00 0.00 0.00 61 1031.8
20260906011803 23 86 3.2 6.4 0.00 0.00 0.00 63 1031.8
20260906010903 23 86 3.2 6.4 0.00 0.00 0.00 61 1031.8
20260906010003 24 93 3.2 9.7 0.00 0.00 0.00 58 1031.7
20260906005403 23 82 3.2 6.4 0.00 0.00 0.00 61 1031.7
20260906004503 23 103 3.2 6.4 0.00 0.00 0.00 62 1031.8
20260906003604 24 89 3.2 11.3 0.00 0.00 0.00 57 1031.6
20260906002703 24 92 3.2 6.4 0.00 0.00 0.00 58 1031.6
20260906002018 23 91 3.2 9.7 0.00 0.00 0.00 60 1031.6
20260906000903 24 90 1.6 6.4 0.00 0.00 0.00 61 1032.0
20260906000003 24 90 3.2 11.3 0.00 0.00 0.00 59 1031.6
20260905235403 25 100 3.2 11.3 0.00 0.00 0.00 59 1031.8
20260905234503 25 72 3.2 9.7 0.00 0.00 0.00 58 1031.6
20260905233603 25 81 4.8 9.7 0.00 0.00 0.00 58 1031.4
20260905232918 25 90 4.8 6.4 0.00 0.00 0.00 59 1031.4
20260905232017 25 82 3.2 6.4 0.00 0.00 0.00 59 1031.4
20260905230903 25 85 3.2 14.5 0.00 0.00 0.00 57 1031.3
20260905230003 25 101 4.8 12.9 0.00 0.00 0.00 57 1031.2
20260905225403 25 96 3.2 9.7 0.00 0.00 0.00 58 1031.0
20260905224503 25 86 3.2 9.7 0.00 0.00 0.00 59 1031.3
20260905223603 24 82 3.2 6.4 0.00 0.00 0.00 61 1031.1
20260905222918 24 78 3.2 6.4 0.00 0.00 0.00 61 1031.0
20260905221803 24 71 3.2 6.4 0.00 0.00 0.00 61 1031.2
20260905220903 24 83 3.2 9.7 0.00 0.00 0.00 61 1031.1
20260905220003 24 74 3.2 9.7 0.00 0.00 0.00 61 1031.1
20260905215403 24 83 3.2 9.7 0.00 0.00 0.00 61 1031.1
20260905214503 23 88 4.8 9.7 0.00 0.00 0.00 64 1031.2
20260905213603 23 59 3.2 6.4 0.00 0.00 0.00 63 1031.0
20260905212703 24 79 1.6 6.4 0.00 0.00 0.00 63 1030.9
20260905211803 24 85 3.2 6.4 0.00 0.00 0.00 63 1031.0
20260905210903 24 83 3.2 6.4 0.00 0.00 0.00 63 1031.0
20260905210003 25 75 3.2 3.2 0.00 0.00 0.00 61 1030.8
20260905205403 24 76 1.6 3.2 0.00 0.00 0.00 61 1031.0
20260905204503 24 69 1.6 3.2 0.00 0.00 0.00 64 1030.8
20260905203603 24 91 1.6 6.4 0.00 0.00 0.00 62 1031.0
20260905202703 25 85 3.2 6.4 0.00 0.00 0.00 62 1030.7
20260905201803 24 31 3.2 9.7 0.00 0.00 0.00 63 1030.6
20260905201117 24 30 3.2 9.7 0.00 0.00 0.00 65 1030.6
20260905200003 25 28 3.2 6.4 0.00 0.00 0.00 63 1030.5
20260905195618 25 48 1.6 6.4 0.00 0.00 0.00 63 1030.4
20260905194718 25 73 1.6 6.4 0.00 0.00 0.00 64 1030.4
20260905193603 25 53 1.6 3.2 0.00 0.00 0.00 62 1030.2
20260905192703 25 66 1.6 6.4 0.00 0.00 0.00 61 1030.3
20260905191803 25 79 3.2 6.4 0.00 0.00 0.00 60 1030.1
20260905190903 26 100 1.6 6.4 0.00 0.00 0.00 59 1029.9
20260905190003 26 88 3.2 6.4 0.00 0.00 0.00 58 1029.9
20260905185403 26 78 1.6 6.4 0.00 0.00 0.00 57 1029.8
20260905184503 26 85 3.2 6.4 0.00 0.00 0.00 57 1029.5
20260905183603 26 88 3.2 6.4 0.00 0.00 0.00 56 1029.6
20260905182708 26 82 3.2 6.4 0.00 0.00 0.00 56 1029.5
20260905181803 26 94 3.2 6.4 0.00 0.00 0.00 55 1029.5
20260905180903 27 88 4.8 11.3 0.00 0.00 0.00 54 1029.6
20260905180003 27 90 4.8 12.9 0.00 0.00 0.00 54 1029.1
20260905175404 27 93 3.2 11.3 0.00 0.00 0.00 55 1029.3
20260905174503 27 94 4.8 12.9 0.00 0.00 0.00 54 1029.3
20260905173603 27 99 4.8 14.5 0.00 0.00 0.00 54 1028.7
20260905172703 27 109 6.4 14.5 0.00 0.00 0.00 54 1029.0
20260905171803 27 95 8.0 14.5 0.00 0.00 0.00 54 1028.5
20260905170903 28 114 4.8 17.7 0.00 0.00 0.00 54 1028.6
20260905170003 28 108 6.4 12.9 0.00 0.00 0.00 53 1028.8
20260905165403 28 102 3.2 6.4 0.00 0.00 0.00 54 1028.8
20260905164503 29 114 6.4 11.3 0.00 0.00 0.00 55 1028.7
20260905163603 31 225 0.0 6.4 0.00 0.00 0.00 50 1028.5
20260905162917 31 272 1.6 6.4 0.00 0.00 0.00 49 1028.2
20260905161803 31 278 3.2 6.4 0.00 0.00 0.00 47 1028.2
20260905160903 32 273 1.6 6.4 0.00 0.00 0.00 45 1028.0
20260905160003 32 255 1.6 3.2 0.00 0.00 0.00 46 1027.9
20260905155403 33 254 1.6 6.4 0.00 0.00 0.00 45 1028.1
20260905154503 32 260 1.6 6.4 0.00 0.00 0.00 46 1028.1
20260905153603 32 279 1.6 6.4 0.00 0.00 0.00 45 1028.2
20260905152703 32 268 3.2 9.7 0.00 0.00 0.00 45 1028.0
20260905152018 32 262 1.6 9.7 0.00 0.00 0.00 44 1028.1
20260905150903 32 262 4.8 11.3 0.00 0.00 0.00 46 1028.0
20260905150217 33 255 6.4 11.3 0.00 0.00 0.00 46 1027.9
20260905145403 33 254 3.2 6.4 0.00 0.00 0.00 48 1027.7
20260905144503 33 263 3.2 11.3 0.00 0.00 0.00 52 1027.8
20260905143603 33 265 4.8 11.3 0.00 0.00 0.00 51 1027.9
20260905142703 33 273 3.2 6.4 0.00 0.00 0.00 54 1027.7
20260905142018 33 279 4.8 6.4 0.00 0.00 0.00 54 1027.9
20260905140903 33 268 3.2 6.4 0.00 0.00 0.00 47 1027.9
20260905140004 34 252 3.2 6.4 0.00 0.00 0.00 47 1027.8
20260905135403 33 265 1.6 6.4 0.00 0.00 0.00 47 1027.8
20260905134503 33 219 1.6 6.4 0.00 0.00 0.00 47 1028.0
20260905133603 32 283 0.0 9.7 0.00 0.00 0.00 47 1027.8
20260905132703 32 273 6.4 9.7 0.00 0.00 0.00 46 1027.7
20260905131803 33 275 4.8 11.3 0.00 0.00 0.00 45 1027.9
20260905130903 33 234 3.2 6.4 0.00 0.00 0.00 45 1027.7
20260905130003 33 254 3.2 9.7 0.00 0.00 0.00 45 1027.8
20260905125403 32 273 3.2 9.7 0.00 0.00 0.00 45 1028.0
20260905124503 33 253 3.2 6.4 0.00 0.00 0.00 44 1028.2
20260905123603 33 279 1.6 9.7 0.00 0.00 0.00 42 1028.3
20260905122703 32 283 4.8 9.7 0.00 0.00 0.00 43 1028.4
20260905121803 33 93 1.6 6.4 0.00 0.00 0.00 44 1028.2
20260905120903 32 116 3.2 6.4 0.00 0.00 0.00 41 1028.3
20260905120003 32 329 3.2 6.4 0.00 0.00 0.00 40 1028.4
20260905115403 32 344 3.2 6.4 0.00 0.00 0.00 41 1028.4
20260905114503 31 83 1.6 6.4 0.00 0.00 0.00 43 1028.4
20260905113603 32 231 3.2 6.4 0.00 0.00 0.00 41 1028.3
20260905112917 33 275 1.6 6.4 0.00 0.00 0.00 41 1028.3
20260905111803 32 256 3.2 9.7 0.00 0.00 0.00 41 1028.5
20260905110903 32 7 4.8 6.4 0.00 0.00 0.00 42 1028.3
20260905110003 32 55 1.6 3.2 0.00 0.00 0.00 43 1028.4
20260905105403 31 5 1.6 6.4 0.00 0.00 0.00 42 1028.6
20260905104503 31 307 0.0 3.2 0.00 0.00 0.00 45 1028.3
20260905103603 30 23 1.6 3.2 0.00 0.00 0.00 46 1028.5
20260905102703 29 18 1.6 6.4 0.00 0.00 0.00 48 1028.3
20260905101803 29 18 3.2 6.4 0.00 0.00 0.00 48 1028.6
20260905100903 30 43 3.2 6.4 0.00 0.00 0.00 47 1028.7
20260905100217 30 354 3.2 6.4 0.00 0.00 0.00 46 1028.6
20260905095403 30 62 1.6 3.2 0.00 0.00 0.00 45 1028.7
20260905094503 30 80 1.6 3.2 0.00 0.00 0.00 46 1028.3
20260905093603 29 55 0.0 3.2 0.00 0.00 0.00 51 1028.6
20260905092916 28 39 1.6 3.2 0.00 0.00 0.00 55 1028.4
20260905091803 29 94 0.0 3.2 0.00 0.00 0.00 54 1028.6
20260905090903 28 39 3.2 6.4 0.00 0.00 0.00 55 1028.5
20260905090003 28 57 3.2 6.4 0.00 0.00 0.00 54 1028.3
20260905085403 29 57 3.2 3.2 0.00 0.00 0.00 53 1028.5
20260905084503 29 70 1.6 3.2 0.00 0.00 0.00 56 1028.3
20260905083603 28 89 1.6 6.4 0.00 0.00 0.00 58 1028.4